User: anonymous   Login
Location: Byszew
(52.1813°N, 19.2693°E)
Time: 06:05:01
(UTC+00:00)
Language:

Okean O Rocket - Orbit

View from above orbital plane
View from above orbital plane
View from above satellite
View from above satellite

Ground track
Ground track

The orbit data is extracted from the following two-line orbital elements,

1 25861U 99039B   21134.53819182  .00000037  00000-0  12577-4 0  9996
2 25861  98.2057 149.2495 0015828 169.8211 351.3035 14.78638492176546
Epoch (UTC): 14 May 2021 12:54:59
Eccentricity: 0.0015828
inclination: 98.2057°
perigee height: 622 km
apogee height: 645 km
right ascension of ascending node: 149.2495°
argument of perigee: 169.8211°
revolutions per day: 14.78638492
mean anomaly at epoch: 351.3035°
orbit number at epoch: 17654

The dashed part of the orbit path shows where the satellite is in the earth's shadow,  

DLR